Weather History for PABA - January, 2014

Change the Weather History Date:

Friday, January 3, 2014

  Actual Average Record
Temperature  
Mean Temperature 6 °F -  
Max Temperature 10 °F 0 °F 23 °F (2005)
Min Temperature 1 °F -13 °F -34 °F (2007)
Degree Days  
Heating Degree Days 60    
Moisture  
Dew Point 4 °F    
Average Humidity 88    
Maximum Humidity 92    
Minimum Humidity 85    
Precipitation  
Precipitation 0.00 in - - ()
Sea Level Pressure  
Sea Level Pressure 30.33 in    
Wind  
Wind Speed 29 mph (East)    
Max Wind Speed 36 mph    
Max Gust Speed 41 mph    
Visibility 1 miles    
Events Fog , Snow    
Averages and records for this station are not official NWS values.
T = Trace of Precipitation, MM = Missing Value Source: NWS Daily Summary

Daily Weather History Graph

Daily Weather History Graph

Search for Another Location

Airport or City:

Trip Planner

Search our weather history database for the weather conditions in past years. The results will help you decide how hot, cold, wet, or windy it might be!

Date:

Astronomy

Dec. 31, 1969 Rise Set
Actual Time Sun does not set Sun does not set
Civil Twilight 10:22 AM AKST 2:55 PM AKST
Nautical Twilight 8:38 AM AKST 4:39 PM AKST
Astronomical Twilight 7:19 AM AKST 5:59 PM AKST
Moon 11:06 AM AKST (1/3) 7:16 PM AKST (1/3)
Length of Visible Light 4h 33m
Length of Day
0h 00m
Waxing Crescent, 9% of the Moon is Illuminated
Jan 3
Waxing Crescent
Jan 7
First Quarter
Jan 15
Full
Jan 23
Last Quarter
Jan 30
New

Hourly Weather History & Observations

Time (AKST) Temp. Windchill Dew Point Humidity Pressure Visibility Wind Dir Wind Speed Gust Speed Precip Events Conditions
12:01 AM 1.0 °F -24.0 °F -2.0 °F 87% 30.28 in 0.5 mi East 28.8 mph - 0.00 in Fog , Snow Light Snow
12:28 AM 1.4 °F -23.9 °F -0.4 °F 92% 30.28 in 0.8 mi East 29.9 mph - 0.00 in Snow Light Snow
12:41 AM 1.4 °F -23.5 °F -0.4 °F 92% 30.28 in 0.5 mi East 28.8 mph - 0.00 in Fog , Snow Light Snow
12:48 AM 1.4 °F -23.9 °F -0.4 °F 92% 30.28 in 0.8 mi East 29.9 mph - 0.00 in Snow Light Snow
1:01 AM 1.9 °F -22.0 °F -0.9 °F 88% 30.29 in 0.8 mi East 26.5 mph - 0.00 in Snow Light Snow
1:13 AM 1.4 °F -22.7 °F -0.4 °F 92% 30.29 in 1.0 mi East 26.5 mph - 0.00 in Snow Light Snow
1:37 AM 3.2 °F -21.1 °F -0.4 °F 85% 30.30 in 0.8 mi East 28.8 mph - 0.00 in Snow Light Snow
1:49 AM 3.2 °F -20.3 °F -0.4 °F 85% 30.30 in 0.8 mi East 26.5 mph - 0.00 in Snow Light Snow
2:01 AM 3.9 °F -19.4 °F 1.0 °F 88% 30.30 in 0.8 mi East 26.5 mph - 0.00 in Snow Light Snow
2:20 AM 3.2 °F -20.3 °F -0.4 °F 85% 30.29 in 1.0 mi East 26.5 mph - 0.00 in Snow Light Snow
3:01 AM 3.2 °F -20.3 °F 1.4 °F 92% 30.30 in 1.0 mi East 26.5 mph - 0.00 in Snow Light Snow
3:08 AM 3.2 °F -19.9 °F 1.4 °F 92% 30.30 in 0.8 mi East 25.3 mph - 0.00 in Snow Light Snow
3:48 AM 3.2 °F -20.3 °F -0.4 °F 85% 30.30 in 1.0 mi East 26.5 mph - N/A Snow Light Snow
4:16 AM 1.4 °F -23.5 °F -0.4 °F 92% 30.29 in 1.0 mi East 28.8 mph - N/A Snow Light Snow
4:25 AM 3.2 °F -21.1 °F -0.4 °F 85% 30.29 in 0.8 mi East 28.8 mph - N/A Snow Light Snow
4:39 AM 3.2 °F -20.7 °F 1.4 °F 92% 30.29 in 0.8 mi East 27.6 mph - N/A Snow Light Snow
4:50 AM 3.2 °F -20.3 °F 1.4 °F 92% 30.29 in 0.8 mi East 26.5 mph - N/A Snow Light Snow
5:01 AM 3.9 °F -18.5 °F 1.0 °F 88% 30.30 in 0.8 mi East 24.2 mph - N/A Snow Light Snow
5:34 AM 6.8 °F -16.2 °F 3.2 °F 85% 30.30 in 0.8 mi East 28.8 mph - N/A Snow Light Snow
6:01 AM 5.0 °F -17.1 °F 1.9 °F 87% 30.30 in - East 24.2 mph - N/A Snow Light Snow
6:08 AM 5.0 °F -17.5 °F 1.4 °F 85% 30.30 in 0.8 mi East 25.3 mph - 0.00 in Snow Light Snow
6:29 AM 6.8 °F -15.5 °F 3.2 °F 85% 30.30 in 0.8 mi East 26.5 mph - 0.00 in Snow Light Snow
6:57 AM 6.8 °F -15.1 °F 3.2 °F 85% 30.30 in 0.8 mi East 25.3 mph - N/A Snow Light Snow
7:01 AM 6.1 °F -16.5 °F 3.0 °F 87% 30.30 in 0.8 mi East 26.5 mph - N/A Snow Light Snow
7:11 AM 6.8 °F -15.1 °F 3.2 °F 85% 30.30 in 0.5 mi East 25.3 mph 34.5 mph 0.00 in Fog , Snow Light Snow
7:18 AM 6.8 °F -15.5 °F 3.2 °F 85% 30.30 in 0.8 mi East 26.5 mph - 0.00 in Snow Light Snow
7:31 AM 6.8 °F -16.9 °F 3.2 °F 85% 30.29 in 0.5 mi East 31.1 mph 36.8 mph 0.00 in Fog , Snow Snow
8:01 AM 6.8 °F -17.3 °F 3.2 °F 85% 30.29 in 0.2 mi East 32.2 mph 41.4 mph 0.00 in Fog , Snow Heavy Snow
8:11 AM 6.8 °F -17.9 °F 3.2 °F 85% 30.30 in 0.5 mi East 34.5 mph - 0.00 in Fog , Snow Snow
8:31 AM 6.8 °F -16.6 °F 3.2 °F 85% 30.30 in 0.5 mi East 29.9 mph - N/A Fog , Snow Light Snow
8:56 AM 6.8 °F -15.9 °F 3.2 °F 85% 30.30 in 0.5 mi East 27.6 mph - N/A Fog , Snow Light Snow
9:01 AM 6.1 °F -17.6 °F 3.0 °F 87% 30.30 in 0.5 mi East 29.9 mph 34.5 mph N/A Fog , Snow Light Snow
9:19 AM 6.8 °F -16.6 °F 3.2 °F 85% 30.30 in 0.5 mi East 29.9 mph - 0.00 in Fog , Snow Snow
9:26 AM 6.8 °F -16.6 °F 3.2 °F 85% 30.30 in 0.2 mi East 29.9 mph - 0.00 in Fog , Snow Heavy Snow
9:53 AM 6.8 °F -17.9 °F 3.2 °F 85% 30.30 in 0.5 mi East 34.5 mph 40.3 mph N/A Fog , Snow Snow
10:01 AM 6.8 °F -17.9 °F 3.2 °F 85% 30.30 in 0.2 mi East 34.5 mph - N/A Fog , Snow Heavy Snow
10:14 AM 6.8 °F -17.6 °F 3.2 °F 85% 30.30 in 0.2 mi East 33.4 mph 40.3 mph N/A Fog , Snow Heavy Snow
10:43 AM 6.8 °F -17.9 °F 3.2 °F 85% 30.31 in 0.2 mi East 34.5 mph - N/A Fog , Snow Heavy Snow
11:20 AM 6.8 °F -16.9 °F 3.2 °F 85% 30.31 in 0.5 mi East 31.1 mph - N/A Fog , Snow Snow
11:30 AM 6.8 °F -17.6 °F 5.0 °F 92% 30.31 in 0.2 mi East 33.4 mph - N/A Fog , Snow Heavy Snow
11:40 AM 6.8 °F -16.6 °F 5.0 °F 92% 30.32 in 0.2 mi East 29.9 mph - N/A Fog , Snow Heavy Snow
12:01 PM 8.1 °F -16.5 °F 5.0 °F 87% 30.31 in 0.2 mi East 35.7 mph 39.1 mph N/A Fog , Snow Heavy Snow
12:11 PM 6.8 °F -17.6 °F 5.0 °F 92% 30.31 in 0.2 mi East 33.4 mph - 0.00 in Fog , Snow Heavy Snow
1:01 PM 8.1 °F -16.2 °F 5.0 °F 87% 30.33 in 0.2 mi East 34.5 mph - 0.00 in Fog , Snow Heavy Snow
1:22 PM 8.6 °F -14.8 °F 5.0 °F 85% 30.33 in 0.2 mi East 32.2 mph 36.8 mph 0.00 in Fog , Snow Heavy Snow
2:01 PM 8.1 °F -16.2 °F 6.1 °F 92% 30.34 in 0.2 mi East 34.5 mph - 0.00 in Fog , Snow Heavy Snow
2:49 PM 8.6 °F -14.8 °F 6.8 °F 92% 30.34 in 0.5 mi East 32.2 mph - 0.00 in Fog , Snow Snow
3:15 PM 8.6 °F -14.5 °F 6.8 °F 92% 30.34 in 0.5 mi East 31.1 mph 34.5 mph N/A Fog , Snow Snow
3:49 PM 8.6 °F -14.8 °F 6.8 °F 92% 30.34 in 0.2 mi East 32.2 mph 35.7 mph N/A Fog , Snow Heavy Snow
4:01 PM 9.0 °F -14.0 °F 6.1 °F 88% 30.34 in 0.2 mi East 31.1 mph 40.3 mph N/A Fog , Snow Heavy Snow
4:09 PM 8.6 °F -14.1 °F 6.8 °F 92% 30.34 in 0.2 mi East 29.9 mph 36.8 mph 0.00 in Fog , Snow Heavy Snow
4:18 PM 10.4 °F -12.3 °F 8.6 °F 92% 30.35 in 0.5 mi East 32.2 mph 38.0 mph 0.00 in Fog , Snow Snow
4:41 PM 10.4 °F -13.0 °F 8.6 °F 92% 30.36 in 0.2 mi East 34.5 mph 41.4 mph N/A Fog , Snow Heavy Snow
5:01 PM 10.4 °F -13.0 °F 8.6 °F 92% 30.35 in 0.2 mi East 34.5 mph 40.3 mph N/A Fog , Snow Heavy Snow
5:07 PM 10.0 °F -13.7 °F 8.1 °F 92% 30.35 in 0.2 mi East 35.7 mph 40.3 mph N/A Fog , Snow Heavy Snow
5:23 PM 10.4 °F -12.7 °F 6.8 °F 85% 30.35 in 0.5 mi East 33.4 mph 39.1 mph 0.00 in Fog , Snow Snow
6:01 PM 10.0 °F -13.4 °F 8.1 °F 92% 30.35 in 0.5 mi East 34.5 mph - 0.00 in Fog , Snow Snow
6:38 PM 10.4 °F -12.3 °F 8.6 °F 92% 30.36 in 0.5 mi East 32.2 mph 40.3 mph N/A Fog , Snow Snow
6:53 PM 10.4 °F -11.7 °F 8.6 °F 92% 30.36 in 0.5 mi East 29.9 mph - N/A Fog , Snow Snow
7:01 PM 10.0 °F -13.1 °F 8.1 °F 92% 30.36 in 0.5 mi East 33.4 mph 38.0 mph N/A Fog , Snow Snow
7:24 PM 8.6 °F -15.1 °F 6.8 °F 92% 30.36 in 0.5 mi East 33.4 mph - N/A Fog , Snow Snow
7:44 PM 8.6 °F -13.8 °F 6.8 °F 92% 30.37 in 0.8 mi East 28.8 mph - N/A Snow Light Snow
8:01 PM 10.0 °F -12.5 °F 7.0 °F 87% 30.37 in 0.8 mi East 31.1 mph - N/A Snow Light Snow
8:09 PM 10.4 °F -11.0 °F 6.8 °F 85% 30.38 in 1.0 mi East 27.6 mph - 0.00 in Snow Light Snow
8:39 PM 10.4 °F -12.3 °F 6.8 °F 85% 30.38 in 0.8 mi East 32.2 mph 40.3 mph 0.00 in Snow Light Snow
9:20 PM 10.4 °F -12.3 °F 6.8 °F 85% 30.38 in 1.0 mi East 32.2 mph 35.7 mph N/A Snow Light Snow
9:49 PM 10.4 °F -11.7 °F 6.8 °F 85% 30.39 in 1.2 mi East 29.9 mph - N/A Snow Light Snow
10:01 PM 10.0 °F -12.8 °F 7.0 °F 87% 30.39 in 1.2 mi East 32.2 mph - N/A Snow Light Snow
10:36 PM 10.4 °F -11.4 °F 6.8 °F 85% 30.40 in 1.0 mi East 28.8 mph 36.8 mph N/A Snow Light Snow
10:51 PM 10.4 °F -11.4 °F 6.8 °F 85% 30.39 in 1.5 mi East 28.8 mph 35.7 mph N/A Snow Light Snow
11:01 PM 10.0 °F -12.5 °F 7.0 °F 87% 30.39 in 1.2 mi East 31.1 mph - N/A Snow Light Snow
11:12 PM 10.4 °F -12.3 °F 6.8 °F 85% 30.40 in 1.0 mi East 32.2 mph - 0.00 in Snow Light Snow
11:28 PM 10.4 °F -12.0 °F 6.8 °F 85% 30.40 in 0.8 mi East 31.1 mph - 0.00 in Snow Light Snow
11:42 PM 10.4 °F -12.3 °F 6.8 °F 85% 30.40 in 0.8 mi East 32.2 mph - 0.00 in Snow Light Snow
11:49 PM 10.4 °F -12.7 °F 6.8 °F 85% 30.40 in 1.0 mi East 33.4 mph - 0.00 in Snow Light Snow